Time,TemperatureF,DewpointF,PressureIn,WindDirection,WindDirectionDegrees,WindSpeedMPH,WindSpeedGustMPH,Humidity,HourlyPrecipIn,Conditions,Clouds,dailyrainin,SoftwareType,DateUTC
2013-08-19 00:00:00,63.8,62.9,30.07,WSW,256,0.0,0.0,97,0.00,,,0.11,Wunderground v.1.15,2013-08-19 04:00:00,
2013-08-19 00:10:00,63.8,62.9,30.07,WSW,256,0.0,0.0,97,0.00,,,0.00,Wunderground v.1.15,2013-08-19 04:10:00,
2013-08-19 00:20:00,63.7,62.8,30.07,WSW,256,0.0,0.0,97,0.00,,,0.00,Wunderground v.1.15,2013-08-19 04:20:00,
2013-08-19 00:30:00,63.7,62.8,30.07,WSW,256,0.0,0.0,97,0.00,,,0.00,Wunderground v.1.15,2013-08-19 04:30:00,
2013-08-19 00:40:00,63.6,62.7,30.06,WSW,256,0.0,0.0,97,0.00,,,0.01,Wunderground v.1.15,2013-08-19 04:40:00,
2013-08-19 00:50:00,63.6,62.7,30.05,WSW,256,0.0,0.0,97,0.05,,,0.02,Wunderground v.1.15,2013-08-19 04:50:00,
2013-08-19 01:00:00,63.5,62.6,30.05,WSW,256,0.0,0.0,97,0.09,,,0.03,Wunderground v.1.15,2013-08-19 05:00:00,
2013-08-19 01:10:00,63.4,62.5,30.05,WSW,256,0.0,0.0,97,0.07,,,0.04,Wunderground v.1.15,2013-08-19 05:10:00,
2013-08-19 01:20:00,63.4,62.5,30.05,WSW,256,0.0,0.0,97,0.06,,,0.05,Wunderground v.1.15,2013-08-19 05:20:00,
2013-08-19 01:30:00,63.3,62.4,30.04,WSW,256,0.0,0.0,97,0.04,,,0.06,Wunderground v.1.15,2013-08-19 05:30:00,
2013-08-19 01:40:00,63.3,62.4,30.04,WSW,256,0.0,0.0,97,0.06,,,0.07,Wunderground v.1.15,2013-08-19 05:40:00,
2013-08-19 01:50:00,63.2,62.3,30.04,WSW,256,0.0,0.0,97,0.05,,,0.08,Wunderground v.1.15,2013-08-19 05:50:00,
2013-08-19 02:00:00,63.2,62.3,30.03,WSW,256,0.0,0.0,97,0.17,,,0.10,Wunderground v.1.15,2013-08-19 06:00:00,
2013-08-19 02:10:00,63.1,62.2,30.03,WSW,256,0.0,0.0,97,0.13,,,0.12,Wunderground v.1.15,2013-08-19 06:10:00,
2013-08-19 02:20:00,63.1,62.2,30.03,WSW,256,0.0,0.0,97,0.08,,,0.13,Wunderground v.1.15,2013-08-19 06:20:00,
2013-08-19 02:30:00,63.0,62.4,30.02,WSW,256,0.0,0.0,98,0.06,,,0.14,Wunderground v.1.15,2013-08-19 06:30:00,
2013-08-19 02:40:00,63.0,62.4,30.02,WSW,256,0.0,0.0,98,0.04,,,0.14,Wunderground v.1.15,2013-08-19 06:40:00,
2013-08-19 02:50:00,62.9,62.3,30.03,WSW,256,0.0,0.0,98,0.00,,,0.15,Wunderground v.1.15,2013-08-19 06:50:00,
2013-08-19 03:00:00,62.9,62.3,30.02,WSW,256,0.0,0.0,98,0.00,,,0.15,Wunderground v.1.15,2013-08-19 07:00:00,
2013-08-19 03:10:00,62.9,62.3,30.02,WSW,256,0.0,0.0,98,0.04,,,0.16,Wunderground v.1.15,2013-08-19 07:10:00,
2013-08-19 03:20:00,62.9,62.3,30.02,WSW,256,0.0,0.0,98,0.04,,,0.16,Wunderground v.1.15,2013-08-19 07:20:00,
2013-08-19 03:30:00,62.9,62.3,30.02,WSW,256,0.0,0.0,98,0.00,,,0.17,Wunderground v.1.15,2013-08-19 07:30:00,
2013-08-19 03:40:00,62.9,62.3,30.02,WSW,256,0.0,0.0,98,0.00,,,0.17,Wunderground v.1.15,2013-08-19 07:40:00,
2013-08-19 03:50:00,62.9,62.3,30.02,WSW,256,0.0,0.0,98,0.00,,,0.17,Wunderground v.1.15,2013-08-19 07:50:00,
2013-08-19 04:00:00,62.9,62.3,30.01,WSW,256,0.0,0.0,98,0.00,,,0.17,Wunderground v.1.15,2013-08-19 08:00:00,
2013-08-19 04:10:00,62.9,62.3,30.01,WSW,256,0.0,0.0,98,0.00,,,0.17,Wunderground v.1.15,2013-08-19 08:10:00,
2013-08-19 04:20:00,62.9,62.3,30.00,WSW,256,0.0,0.0,98,0.00,,,0.18,Wunderground v.1.15,2013-08-19 08:20:00,
2013-08-19 04:30:00,62.9,62.3,30.01,WSW,256,0.0,0.0,98,0.00,,,0.18,Wunderground v.1.15,2013-08-19 08:30:00,
2013-08-19 04:40:00,62.9,62.3,30.00,WSW,256,0.0,0.0,98,0.00,,,0.18,Wunderground v.1.15,2013-08-19 08:40:00,
2013-08-19 04:50:00,62.8,62.2,30.00,WSW,256,0.0,0.0,98,0.00,,,0.18,Wunderground v.1.15,2013-08-19 08:50:00,
2013-08-19 05:00:00,62.8,62.2,30.00,WSW,256,0.0,0.0,98,0.00,,,0.18,Wunderground v.1.15,2013-08-19 09:00:00,
2013-08-19 05:10:00,62.8,62.2,30.00,WSW,256,0.0,0.0,98,0.00,,,0.19,Wunderground v.1.15,2013-08-19 09:10:00,
2013-08-19 05:20:00,62.8,62.2,30.01,WSW,256,0.0,0.0,98,0.00,,,0.19,Wunderground v.1.15,2013-08-19 09:20:00,
2013-08-19 05:30:00,62.9,62.6,30.01,WSW,256,0.0,0.0,99,0.00,,,0.19,Wunderground v.1.15,2013-08-19 09:30:00,
2013-08-19 05:40:00,62.9,62.6,30.01,WSW,256,0.0,0.0,99,0.00,,,0.19,Wunderground v.1.15,2013-08-19 09:40:00,
2013-08-19 05:50:00,62.9,62.6,30.01,WSW,256,0.0,0.0,99,0.00,,,0.19,Wunderground v.1.15,2013-08-19 09:50:00,
2013-08-19 06:00:00,63.0,62.7,30.01,WSW,256,0.0,0.0,99,0.00,,,0.19,Wunderground v.1.15,2013-08-19 10:00:00,
2013-08-19 06:10:00,63.0,62.7,30.02,WSW,256,0.0,0.0,99,0.00,,,0.20,Wunderground v.1.15,2013-08-19 10:10:00,
2013-08-19 06:20:00,63.0,62.7,30.02,WSW,256,0.0,0.0,99,0.00,,,0.20,Wunderground v.1.15,2013-08-19 10:20:00,
2013-08-19 06:30:00,63.1,62.8,30.01,WSW,256,0.0,0.0,99,0.00,,,0.20,Wunderground v.1.15,2013-08-19 10:30:00,
2013-08-19 06:40:00,63.1,62.8,30.02,WSW,256,0.0,0.0,99,0.00,,,0.20,Wunderground v.1.15,2013-08-19 10:40:00,
2013-08-19 06:50:00,63.2,62.9,30.02,WSW,256,0.0,0.0,99,0.00,,,0.20,Wunderground v.1.15,2013-08-19 10:50:00,
2013-08-19 07:00:00,63.3,63.0,30.01,WSW,256,0.0,0.0,99,0.00,,,0.20,Wunderground v.1.15,2013-08-19 11:00:00,
2013-08-19 07:10:00,63.4,63.1,30.01,WSW,256,0.0,0.0,99,0.00,,,0.20,Wunderground v.1.15,2013-08-19 11:10:00,
2013-08-19 07:20:00,63.4,63.1,30.01,WSW,256,0.0,0.0,99,0.00,,,0.20,Wunderground v.1.15,2013-08-19 11:20:00,
2013-08-19 07:30:00,63.4,63.1,30.01,WSW,256,0.0,0.0,99,0.00,,,0.20,Wunderground v.1.15,2013-08-19 11:30:00,
2013-08-19 07:40:00,63.4,63.1,30.00,WSW,256,0.0,0.0,99,0.00,,,0.20,Wunderground v.1.15,2013-08-19 11:40:00,
2013-08-19 07:50:00,63.4,63.1,30.00,WSW,256,0.0,0.0,99,0.00,,,0.20,Wunderground v.1.15,2013-08-19 11:50:00,
2013-08-19 08:00:00,63.4,63.1,30.00,WSW,256,0.0,0.0,99,0.00,,,0.20,Wunderground v.1.15,2013-08-19 12:00:00,
2013-08-19 08:10:00,63.5,63.2,30.00,WSW,256,0.0,0.0,99,0.00,,,0.20,Wunderground v.1.15,2013-08-19 12:10:00,
2013-08-19 08:20:00,63.5,63.2,30.00,WSW,256,0.0,0.0,99,0.00,,,0.20,Wunderground v.1.15,2013-08-19 12:20:00,
2013-08-19 08:30:00,63.6,63.3,30.00,WSW,256,0.0,0.0,99,0.00,,,0.20,Wunderground v.1.15,2013-08-19 12:30:00,
2013-08-19 08:40:00,63.6,63.6,30.00,WSW,256,0.0,0.0,100,0.00,,,0.20,Wunderground v.1.15,2013-08-19 12:40:00,
2013-08-19 08:50:00,63.8,63.8,30.00,WSW,256,0.0,0.0,100,0.00,,,0.20,Wunderground v.1.15,2013-08-19 12:50:00,
2013-08-19 09:00:00,64.0,64.0,30.00,WSW,256,0.0,0.0,100,0.00,,,0.20,Wunderground v.1.15,2013-08-19 13:00:00,
2013-08-19 09:10:00,64.1,64.1,30.00,WSW,256,0.0,0.0,100,0.00,,,0.20,Wunderground v.1.15,2013-08-19 13:10:00,
2013-08-19 09:20:00,64.3,64.3,29.99,WSW,256,0.0,0.0,100,0.00,,,0.20,Wunderground v.1.15,2013-08-19 13:20:00,
2013-08-19 09:30:00,64.4,64.4,29.99,WSW,256,0.0,0.0,100,0.00,,,0.20,Wunderground v.1.15,2013-08-19 13:30:00,
2013-08-19 09:40:00,64.7,64.7,29.99,WSW,256,0.0,0.0,100,0.00,,,0.20,Wunderground v.1.15,2013-08-19 13:40:00,
2013-08-19 09:50:00,65.0,65.0,30.00,WSW,256,0.0,0.0,100,0.00,,,0.20,Wunderground v.1.15,2013-08-19 13:50:00,
2013-08-19 10:00:00,65.5,65.5,30.00,WSW,256,0.0,0.0,100,0.00,,,0.20,Wunderground v.1.15,2013-08-19 14:00:00,
2013-08-19 10:10:00,65.6,65.6,30.00,WSW,256,0.0,0.0,100,0.00,,,0.20,Wunderground v.1.15,2013-08-19 14:10:00,
2013-08-19 10:20:00,65.7,65.7,30.00,WSW,256,0.0,0.0,100,0.00,,,0.20,Wunderground v.1.15,2013-08-19 14:20:00,
2013-08-19 10:30:00,65.9,65.9,30.00,WSW,256,0.0,0.0,100,0.00,,,0.20,Wunderground v.1.15,2013-08-19 14:30:00,
2013-08-19 10:40:00,66.1,66.1,30.00,WSW,256,0.0,0.0,100,0.00,,,0.20,Wunderground v.1.15,2013-08-19 14:40:00,
2013-08-19 10:50:00,66.3,66.3,30.00,WSW,256,0.0,0.0,100,0.00,,,0.20,Wunderground v.1.15,2013-08-19 14:50:00,
2013-08-19 11:00:00,66.8,66.8,30.01,WSW,256,0.0,0.0,100,0.00,,,0.20,Wunderground v.1.15,2013-08-19 15:00:00,
2013-08-19 11:10:00,66.7,66.7,30.01,WSW,256,0.0,0.0,100,0.00,,,0.20,Wunderground v.1.15,2013-08-19 15:10:00,
2013-08-19 11:20:00,66.6,66.6,30.01,WSW,256,0.0,0.0,100,0.00,,,0.20,Wunderground v.1.15,2013-08-19 15:20:00,
2013-08-19 11:30:00,66.8,66.8,30.00,WSW,256,0.0,0.0,100,0.00,,,0.20,Wunderground v.1.15,2013-08-19 15:30:00,
2013-08-19 11:40:00,66.8,66.5,30.01,WSW,256,0.0,0.0,99,0.00,,,0.20,Wunderground v.1.15,2013-08-19 15:40:00,
2013-08-19 11:50:00,66.8,66.5,30.00,WSW,256,0.0,0.0,99,0.00,,,0.20,Wunderground v.1.15,2013-08-19 15:50:00,
2013-08-19 12:00:00,66.8,66.5,30.00,WSW,256,0.0,0.0,99,0.00,,,0.20,Wunderground v.1.15,2013-08-19 16:00:00,
2013-08-19 12:10:00,66.9,66.6,30.00,WSW,256,0.0,0.0,99,0.00,,,0.20,Wunderground v.1.15,2013-08-19 16:10:00,
2013-08-19 12:20:00,67.1,66.8,30.00,WSW,256,0.0,0.0,99,0.00,,,0.20,Wunderground v.1.15,2013-08-19 16:20:00,
2013-08-19 12:30:00,67.5,67.2,30.00,WSW,256,0.0,0.0,99,0.00,,,0.20,Wunderground v.1.15,2013-08-19 16:30:00,
2013-08-19 12:40:00,67.9,67.6,30.00,SSE,154,0.0,0.0,99,0.00,,,0.20,Wunderground v.1.15,2013-08-19 16:40:00,
2013-08-19 12:50:00,68.1,67.5,30.00,SW,227,0.0,0.0,98,0.00,,,0.20,Wunderground v.1.15,2013-08-19 16:50:00,
2013-08-19 13:00:00,68.6,67.7,30.00,SSE,164,1.0,1.0,97,0.00,,,0.20,Wunderground v.1.15,2013-08-19 17:00:00,
2013-08-19 13:10:00,70.0,68.8,30.00,SSW,198,1.0,1.0,96,0.00,,,0.20,Wunderground v.1.15,2013-08-19 17:10:00,
2013-08-19 13:20:00,70.8,68.4,29.99,SSW,198,0.0,0.0,92,0.00,,,0.20,Wunderground v.1.15,2013-08-19 17:20:00,
2013-08-19 13:30:00,71.2,68.4,29.99,East,95,0.0,0.0,91,0.00,,,0.20,Wunderground v.1.15,2013-08-19 17:30:00,
2013-08-19 13:40:00,71.2,68.4,29.99,West,275,1.0,1.0,91,0.00,,,0.20,Wunderground v.1.15,2013-08-19 17:40:00,
2013-08-19 13:50:00,71.2,68.1,29.99,NW,311,1.0,1.0,90,0.00,,,0.20,Wunderground v.1.15,2013-08-19 17:50:00,
2013-08-19 14:00:00,71.1,68.3,29.99,SSW,209,1.0,1.0,91,0.00,,,0.20,Wunderground v.1.15,2013-08-19 18:00:00,
2013-08-19 14:10:00,71.1,68.0,29.98,SSW,208,0.0,1.0,90,0.00,,,0.20,Wunderground v.1.15,2013-08-19 18:10:00,
2013-08-19 14:20:00,70.9,67.5,29.98,NW,318,1.0,1.0,89,0.00,,,0.20,Wunderground v.1.15,2013-08-19 18:20:00,
2013-08-19 14:30:00,71.2,68.1,29.98,SSW,206,0.0,0.0,90,0.00,,,0.20,Wunderground v.1.15,2013-08-19 18:30:00,
2013-08-19 14:40:00,71.9,68.5,29.98,SW,218,1.0,1.0,89,0.00,,,0.20,Wunderground v.1.15,2013-08-19 18:40:00,
2013-08-19 14:50:00,72.3,68.2,29.98,WNW,296,1.0,1.0,87,0.00,,,0.20,Wunderground v.1.15,2013-08-19 18:50:00,
2013-08-19 15:00:00,72.3,67.9,29.97,WNW,300,0.0,1.0,86,0.00,,,0.20,Wunderground v.1.15,2013-08-19 19:00:00,
2013-08-19 15:10:00,72.4,68.3,29.97,West,280,0.0,1.0,87,0.00,,,0.20,Wunderground v.1.15,2013-08-19 19:10:00,
2013-08-19 15:20:00,72.4,68.6,29.97,WSW,251,1.0,1.0,88,0.00,,,0.20,Wunderground v.1.15,2013-08-19 19:20:00,
2013-08-19 15:30:00,73.0,68.6,29.97,West,259,1.0,1.0,86,0.00,,,0.20,Wunderground v.1.15,2013-08-19 19:30:00,
2013-08-19 15:40:00,73.6,69.2,29.96,SW,222,0.0,0.0,86,0.00,,,0.20,Wunderground v.1.15,2013-08-19 19:40:00,
2013-08-19 15:50:00,73.9,68.8,29.96,WNW,284,0.0,1.0,84,0.00,,,0.20,Wunderground v.1.15,2013-08-19 19:50:00,
2013-08-19 16:00:00,74.8,70.0,29.96,WNW,284,1.0,1.0,85,0.00,,,0.20,Wunderground v.1.15,2013-08-19 20:00:00,
2013-08-19 16:10:00,75.0,68.8,29.95,West,279,1.0,1.0,81,0.00,,,0.20,Wunderground v.1.15,2013-08-19 20:10:00,
2013-08-19 16:20:00,74.6,68.7,29.95,West,273,0.0,0.0,82,0.00,,,0.20,Wunderground v.1.15,2013-08-19 20:20:00,
2013-08-19 16:30:00,74.7,69.2,29.95,West,259,0.0,0.0,83,0.00,,,0.20,Wunderground v.1.15,2013-08-19 20:30:00,
2013-08-19 16:40:00,74.3,68.4,29.95,West,272,0.0,0.0,82,0.00,,,0.20,Wunderground v.1.15,2013-08-19 20:40:00,
2013-08-19 16:50:00,73.9,68.1,29.95,NW,309,0.0,0.0,82,0.00,,,0.20,Wunderground v.1.15,2013-08-19 20:50:00,
2013-08-19 17:00:00,74.3,69.5,29.94,SSW,207,0.0,0.0,85,0.00,,,0.20,Wunderground v.1.15,2013-08-19 21:00:00,
2013-08-19 17:10:00,74.9,68.7,29.94,WNW,288,1.0,1.0,81,0.00,,,0.20,Wunderground v.1.15,2013-08-19 21:10:00,
2013-08-19 17:20:00,74.5,68.6,29.94,WNW,288,1.0,1.0,82,0.00,,,0.20,Wunderground v.1.15,2013-08-19 21:20:00,
2013-08-19 17:30:00,73.8,69.0,29.94,WNW,288,0.0,0.0,85,0.00,,,0.20,Wunderground v.1.15,2013-08-19 21:30:00,
2013-08-19 17:40:00,73.4,69.3,29.94,WNW,288,0.0,0.0,87,0.00,,,0.20,Wunderground v.1.15,2013-08-19 21:40:00,
2013-08-19 17:50:00,73.2,69.4,29.94,WNW,288,0.0,0.0,88,0.00,,,0.20,Wunderground v.1.15,2013-08-19 21:50:00,
2013-08-19 18:00:00,72.6,69.2,29.94,WNW,287,0.0,0.0,89,0.00,,,0.20,Wunderground v.1.15,2013-08-19 22:00:00,
2013-08-19 18:10:00,72.5,69.4,29.94,WNW,288,0.0,0.0,90,0.00,,,0.20,Wunderground v.1.15,2013-08-19 22:10:00,
2013-08-19 18:20:00,73.0,69.9,29.94,WNW,288,0.0,0.0,90,0.00,,,0.20,Wunderground v.1.15,2013-08-19 22:20:00,
2013-08-19 18:30:00,73.1,68.7,29.93,South,182,0.0,0.0,86,0.00,,,0.21,Wunderground v.1.15,2013-08-19 22:30:00,
2013-08-19 18:40:00,73.2,69.1,29.93,South,182,0.0,0.0,87,0.00,,,0.21,Wunderground v.1.15,2013-08-19 22:40:00,
2013-08-19 18:50:00,73.4,69.3,29.93,South,182,0.0,0.0,87,0.00,,,0.21,Wunderground v.1.15,2013-08-19 22:50:00,
2013-08-19 19:00:00,73.3,68.9,29.93,South,182,0.0,0.0,86,0.00,,,0.21,Wunderground v.1.15,2013-08-19 23:00:00,
2013-08-19 19:10:00,73.1,69.0,29.94,South,182,0.0,0.0,87,0.00,,,0.21,Wunderground v.1.15,2013-08-19 23:10:00,
2013-08-19 19:20:00,73.0,69.2,29.94,South,182,0.0,0.0,88,0.00,,,0.21,Wunderground v.1.15,2013-08-19 23:20:00,
2013-08-19 19:30:00,72.6,69.2,29.94,South,182,0.0,0.0,89,0.00,,,0.21,Wunderground v.1.15,2013-08-19 23:30:00,
2013-08-19 19:40:00,72.2,69.1,29.94,South,182,0.0,0.0,90,0.00,,,0.21,Wunderground v.1.15,2013-08-19 23:40:00,
2013-08-19 19:50:00,71.6,68.8,29.93,South,182,0.0,0.0,91,0.00,,,0.21,Wunderground v.1.15,2013-08-19 23:50:00,
2013-08-19 20:00:00,71.1,68.7,29.94,South,182,0.0,0.0,92,0.00,,,0.21,Wunderground v.1.15,2013-08-20 00:00:00,
2013-08-19 20:10:00,70.6,68.2,29.95,South,182,0.0,0.0,92,0.00,,,0.21,Wunderground v.1.15,2013-08-20 00:10:00,
2013-08-19 20:20:00,70.2,68.1,29.95,South,182,0.0,0.0,93,0.00,,,0.21,Wunderground v.1.15,2013-08-20 00:20:00,
2013-08-19 20:30:00,69.8,67.7,29.95,South,182,0.0,0.0,93,0.00,,,0.21,Wunderground v.1.15,2013-08-20 00:30:00,
2013-08-19 20:40:00,69.4,67.6,29.95,South,182,0.0,0.0,94,0.00,,,0.21,Wunderground v.1.15,2013-08-20 00:40:00,
2013-08-19 20:50:00,69.2,67.4,29.96,South,182,0.0,0.0,94,0.00,,,0.21,Wunderground v.1.15,2013-08-20 00:50:00,
2013-08-19 21:00:00,69.0,67.5,29.95,South,182,0.0,0.0,95,0.00,,,0.21,Wunderground v.1.15,2013-08-20 01:00:00,
2013-08-19 21:10:00,68.6,67.1,29.96,South,182,0.0,0.0,95,0.00,,,0.21,Wunderground v.1.15,2013-08-20 01:10:00,
2013-08-19 21:20:00,68.1,66.6,29.96,South,182,0.0,0.0,95,0.00,,,0.21,Wunderground v.1.15,2013-08-20 01:20:00,
2013-08-19 21:30:00,67.8,66.6,29.97,South,182,0.0,0.0,96,0.00,,,0.21,Wunderground v.1.15,2013-08-20 01:30:00,
2013-08-19 21:40:00,67.5,66.3,29.97,South,182,0.0,0.0,96,0.00,,,0.21,Wunderground v.1.15,2013-08-20 01:40:00,
2013-08-19 21:50:00,67.2,66.0,29.97,South,182,0.0,0.0,96,0.00,,,0.21,Wunderground v.1.15,2013-08-20 01:50:00,
2013-08-19 22:00:00,66.8,65.6,29.97,South,182,0.0,0.0,96,0.00,,,0.21,Wunderground v.1.15,2013-08-20 02:00:00,
2013-08-19 22:10:00,66.7,65.8,29.97,South,182,0.0,0.0,97,0.00,,,0.21,Wunderground v.1.15,2013-08-20 02:10:00,
2013-08-19 22:20:00,66.5,65.6,29.98,South,182,0.0,0.0,97,0.00,,,0.21,Wunderground v.1.15,2013-08-20 02:20:00,
2013-08-19 22:30:00,66.2,65.3,29.98,South,182,0.0,0.0,97,0.00,,,0.21,Wunderground v.1.15,2013-08-20 02:30:00,
2013-08-19 22:40:00,66.0,65.1,29.98,South,182,0.0,0.0,97,0.00,,,0.21,Wunderground v.1.15,2013-08-20 02:40:00,
2013-08-19 22:50:00,65.8,64.9,29.98,South,182,0.0,0.0,97,0.00,,,0.21,Wunderground v.1.15,2013-08-20 02:50:00,
2013-08-19 23:00:00,65.5,64.6,29.98,South,182,0.0,0.0,97,0.00,,,0.21,Wunderground v.1.15,2013-08-20 03:00:00,
2013-08-19 23:10:00,65.4,64.8,29.98,South,182,0.0,0.0,98,0.00,,,0.21,Wunderground v.1.15,2013-08-20 03:10:00,
2013-08-19 23:20:00,65.4,64.8,29.98,South,182,0.0,0.0,98,0.00,,,0.21,Wunderground v.1.15,2013-08-20 03:20:00,
2013-08-19 23:30:00,65.3,64.7,29.98,South,182,0.0,0.0,98,0.00,,,0.21,Wunderground v.1.15,2013-08-20 03:30:00,
2013-08-19 23:40:00,65.0,64.4,29.98,South,182,0.0,0.0,98,0.00,,,0.21,Wunderground v.1.15,2013-08-20 03:40:00,
2013-08-19 23:50:00,64.7,64.1,29.98,South,182,0.0,0.0,98,0.00,,,0.21,Wunderground v.1.15,2013-08-20 03:50:00,